Location: Broekland
(52.3610°N, 6.2005°E)
Time: 01:33:50
(UTC+00:00)

Helios 1A - Pass Details

Date: 19 May 2025
Orbit: 544 x 570 km, 98.3° (Epoch: 03 June)

Event Time Altitude Azimuth Distance (km) Brightness Sun altitude
Rises 20:41:01 0° 12° (NNE) 2,790 7.0 -8.7°
Reaches altitude 10° 20:43:12 10° 8° (N) 1,886 6.2 -8.9°
Maximum altitude 20:47:13 59° 290° (WNW) 663 3.5 -9.3°
Drops below altitude 10° 20:51:10 10° 211° (SSW) 1,860 5.3 -9.7°
Sets 20:53:19 0° 207° (SSW) 2,748 6.1 -9.9°
